Time,TemperatureF,DewpointF,PressureIn,WindDirection,WindDirectionDegrees,WindSpeedMPH,WindSpeedGustMPH,Humidity,HourlyPrecipIn,Conditions,Clouds,dailyrainin,SoftwareType,DateUTC
2015-02-01 00:00:00,35.9,32.1,30.07,East,87,7.0,11.0,86,0.00,,,0.00,Wunderground v.1.15,2015-02-01 06:00:00,
2015-02-01 00:11:00,35.7,31.9,30.06,East,90,7.0,8.0,86,0.00,,,0.00,Wunderground v.1.15,2015-02-01 06:11:00,
2015-02-01 00:17:00,35.6,31.8,30.04,East,94,7.0,12.0,86,0.00,,,0.00,Wunderground v.1.15,2015-02-01 06:17:00,
2015-02-01 00:22:00,35.6,31.8,30.04,East,94,8.0,11.0,86,0.00,,,0.00,Wunderground v.1.15,2015-02-01 06:22:00,
2015-02-01 00:28:00,35.4,31.6,30.03,East,87,10.0,12.0,86,0.00,,,0.00,Wunderground v.1.15,2015-02-01 06:28:00,
2015-02-01 00:34:00,35.3,31.5,30.02,East,89,10.0,12.0,86,0.00,,,0.00,Wunderground v.1.15,2015-02-01 06:34:00,
2015-02-01 00:39:00,35.3,31.5,30.01,East,86,10.0,14.0,86,0.00,,,0.00,Wunderground v.1.15,2015-02-01 06:39:00,
2015-02-01 00:50:00,35.5,31.7,30.02,ESE,112,8.0,15.0,86,0.00,,,0.00,Wunderground v.1.15,2015-02-01 06:50:00,
2015-02-01 00:56:00,35.4,31.6,30.01,East,92,5.0,9.0,86,0.00,,,0.00,Wunderground v.1.15,2015-02-01 06:56:00,
2015-02-01 01:01:00,35.3,31.5,30.02,SE,146,5.0,6.0,86,0.00,,,0.00,Wunderground v.1.15,2015-02-01 07:01:00,
2015-02-01 01:07:00,35.3,31.5,30.02,ESE,123,5.0,7.0,86,0.00,,,0.00,Wunderground v.1.15,2015-02-01 07:07:00,
2015-02-01 01:13:00,35.4,31.3,30.02,ESE,110,6.0,15.0,85,0.00,,,0.00,Wunderground v.1.15,2015-02-01 07:13:00,
2015-02-01 01:18:00,35.6,31.2,30.01,East,95,7.0,20.0,84,0.00,,,0.00,Wunderground v.1.15,2015-02-01 07:18:00,
2015-02-01 01:24:00,36.6,31.9,30.01,South,176,7.0,10.0,83,0.00,,,0.00,Wunderground v.1.15,2015-02-01 07:24:00,
2015-02-01 01:29:00,36.8,31.8,30.02,ESE,109,7.0,10.0,82,0.00,,,0.00,Wunderground v.1.15,2015-02-01 07:29:00,
2015-02-01 01:35:00,36.6,31.9,30.02,SE,141,6.0,10.0,83,0.00,,,0.00,Wunderground v.1.15,2015-02-01 07:35:00,
2015-02-01 01:40:00,36.2,31.8,30.02,SSE,150,6.0,10.0,84,0.00,,,0.00,Wunderground v.1.15,2015-02-01 07:40:00,
2015-02-01 01:45:00,35.9,31.8,30.02,SE,130,5.0,10.0,85,0.00,,,0.01,Wunderground v.1.15,2015-02-01 07:45:00,
2015-02-01 01:51:00,35.8,31.7,30.02,SE,129,5.0,5.0,85,0.00,,,0.01,Wunderground v.1.15,2015-02-01 07:51:00,
2015-02-01 01:57:00,35.7,31.9,30.02,SSE,150,5.0,7.0,86,0.00,,,0.01,Wunderground v.1.15,2015-02-01 07:57:00,
2015-02-01 02:02:00,35.5,32.0,30.02,SE,146,5.0,5.0,87,0.00,,,0.01,Wunderground v.1.15,2015-02-01 08:02:00,
2015-02-01 02:08:00,35.3,31.8,30.01,SSE,154,3.0,5.0,87,0.00,,,0.01,Wunderground v.1.15,2015-02-01 08:08:00,
2015-02-01 02:13:00,35.3,32.1,30.01,SSE,152,2.0,3.0,88,0.00,,,0.01,Wunderground v.1.15,2015-02-01 08:13:00,
2015-02-01 02:19:00,35.2,32.0,30.01,SSE,154,1.0,3.0,88,0.00,,,0.01,Wunderground v.1.15,2015-02-01 08:19:00,
2015-02-01 02:24:00,35.1,32.2,30.01,South,177,1.0,6.0,89,0.00,,,0.01,Wunderground v.1.15,2015-02-01 08:24:00,
2015-02-01 02:30:00,34.9,32.0,30.00,SSE,158,3.0,7.0,89,0.00,,,0.01,Wunderground v.1.15,2015-02-01 08:30:00,
2015-02-01 02:35:00,34.9,31.7,30.00,SE,126,4.0,5.0,88,0.00,,,0.01,Wunderground v.1.15,2015-02-01 08:35:00,
2015-02-01 02:41:00,34.7,31.8,30.00,ESE,118,4.0,6.0,89,0.00,,,0.01,Wunderground v.1.15,2015-02-01 08:41:00,
2015-02-01 02:47:00,34.5,31.9,30.00,ESE,123,3.0,6.0,90,0.00,,,0.01,Wunderground v.1.15,2015-02-01 08:47:00,
2015-02-01 02:52:00,34.4,31.8,29.99,ESE,110,3.0,6.0,90,0.00,,,0.01,Wunderground v.1.15,2015-02-01 08:52:00,
2015-02-01 02:58:00,34.2,31.8,29.98,ESE,108,4.0,6.0,91,0.00,,,0.01,Wunderground v.1.15,2015-02-01 08:58:00,
2015-02-01 03:04:00,34.1,31.7,29.98,ESE,107,4.0,8.0,91,0.00,,,0.01,Wunderground v.1.15,2015-02-01 09:04:00,
2015-02-01 03:09:00,33.9,31.8,29.97,SE,141,5.0,8.0,92,0.00,,,0.01,Wunderground v.1.15,2015-02-01 09:09:00,
2015-02-01 03:15:00,33.8,31.7,29.96,East,91,5.0,8.0,92,0.00,,,0.01,Wunderground v.1.15,2015-02-01 09:15:00,
2015-02-01 03:21:00,33.7,31.9,29.95,East,96,5.0,7.0,93,0.00,,,0.01,Wunderground v.1.15,2015-02-01 09:21:00,
2015-02-01 03:26:00,33.7,31.9,29.94,East,92,6.0,10.0,93,0.00,,,0.01,Wunderground v.1.15,2015-02-01 09:26:00,
2015-02-01 03:32:00,33.6,31.8,29.94,East,99,6.0,6.0,93,0.00,,,0.01,Wunderground v.1.15,2015-02-01 09:32:00,
2015-02-01 03:37:00,33.5,31.7,29.94,East,92,6.0,10.0,93,0.00,,,0.01,Wunderground v.1.15,2015-02-01 09:37:00,
2015-02-01 03:43:00,33.5,32.0,29.93,East,87,6.0,6.0,94,0.00,,,0.01,Wunderground v.1.15,2015-02-01 09:43:00,
2015-02-01 03:48:00,33.5,32.0,29.92,East,85,7.0,7.0,94,0.00,,,0.01,Wunderground v.1.15,2015-02-01 09:48:00,
2015-02-01 03:54:00,33.5,32.0,29.92,East,86,6.0,6.0,94,0.00,,,0.01,Wunderground v.1.15,2015-02-01 09:54:00,
2015-02-01 04:00:00,33.4,31.9,29.91,East,80,7.0,10.0,94,0.00,,,0.01,Wunderground v.1.15,2015-02-01 10:00:00,
2015-02-01 04:05:00,33.4,31.9,29.91,SE,141,8.0,12.0,94,0.00,,,0.01,Wunderground v.1.15,2015-02-01 10:05:00,
2015-02-01 04:11:00,33.4,31.9,29.90,SE,141,7.0,8.0,94,0.00,,,0.01,Wunderground v.1.15,2015-02-01 10:11:00,
2015-02-01 04:16:00,33.3,31.8,29.90,ENE,67,7.0,10.0,94,0.00,,,0.01,Wunderground v.1.15,2015-02-01 10:16:00,
2015-02-01 04:22:00,33.3,31.8,29.90,East,87,8.0,14.0,94,0.00,,,0.01,Wunderground v.1.15,2015-02-01 10:22:00,
2015-02-01 04:27:00,33.4,31.9,29.89,East,79,8.0,14.0,94,0.00,,,0.01,Wunderground v.1.15,2015-02-01 10:27:00,
2015-02-01 04:33:00,33.3,31.8,29.89,East,96,7.0,8.0,94,0.00,,,0.01,Wunderground v.1.15,2015-02-01 10:33:00,
2015-02-01 04:39:00,33.3,32.0,29.89,ESE,103,6.0,9.0,95,0.00,,,0.01,Wunderground v.1.15,2015-02-01 10:39:00,
2015-02-01 04:45:00,33.3,32.0,29.88,East,91,6.0,9.0,95,0.00,,,0.01,Wunderground v.1.15,2015-02-01 10:45:00,
2015-02-01 04:50:00,33.4,32.1,29.88,East,79,7.0,12.0,95,0.00,,,0.01,Wunderground v.1.15,2015-02-01 10:50:00,
2015-02-01 04:56:00,33.5,32.2,29.88,ESE,109,8.0,11.0,95,0.00,,,0.01,Wunderground v.1.15,2015-02-01 10:56:00,
2015-02-01 05:02:00,33.5,32.2,29.88,East,79,7.0,7.0,95,0.00,,,0.01,Wunderground v.1.15,2015-02-01 11:02:00,
2015-02-01 05:07:00,33.5,32.2,29.87,East,85,7.0,9.0,95,0.00,,,0.01,Wunderground v.1.15,2015-02-01 11:07:00,
2015-02-01 05:12:00,33.5,32.2,29.87,ESE,119,7.0,7.0,95,0.00,,,0.01,Wunderground v.1.15,2015-02-01 11:12:00,
2015-02-01 05:18:00,33.5,32.2,29.87,East,92,6.0,11.0,95,0.00,,,0.01,Wunderground v.1.15,2015-02-01 11:18:00,
2015-02-01 05:24:00,33.5,32.2,29.86,East,88,8.0,8.0,95,0.00,,,0.01,Wunderground v.1.15,2015-02-01 11:24:00,
2015-02-01 05:29:00,33.5,32.2,29.86,East,101,7.0,8.0,95,0.00,,,0.01,Wunderground v.1.15,2015-02-01 11:29:00,
2015-02-01 05:35:00,33.5,32.2,29.86,SE,132,6.0,8.0,95,0.00,,,0.01,Wunderground v.1.15,2015-02-01 11:35:00,
2015-02-01 05:40:00,33.5,32.2,29.85,ESE,122,7.0,9.0,95,0.00,,,0.01,Wunderground v.1.15,2015-02-01 11:40:00,
2015-02-01 05:46:00,33.5,32.2,29.85,East,96,6.0,8.0,95,0.00,,,0.01,Wunderground v.1.15,2015-02-01 11:46:00,
2015-02-01 05:51:00,33.5,32.2,29.85,ESE,109,6.0,6.0,95,0.00,,,0.01,Wunderground v.1.15,2015-02-01 11:51:00,
2015-02-01 05:57:00,33.5,32.2,29.84,SE,141,7.0,11.0,95,0.00,,,0.01,Wunderground v.1.15,2015-02-01 11:57:00,
2015-02-01 06:03:00,33.5,32.2,29.84,SE,141,7.0,7.0,95,0.00,,,0.01,Wunderground v.1.15,2015-02-01 12:03:00,
2015-02-01 06:08:00,33.5,32.2,29.84,East,88,6.0,7.0,95,0.00,,,0.01,Wunderground v.1.15,2015-02-01 12:08:00,
2015-02-01 06:14:00,33.5,32.2,29.83,SE,141,6.0,10.0,95,0.00,,,0.01,Wunderground v.1.15,2015-02-01 12:14:00,
2015-02-01 06:19:00,33.5,32.2,29.83,ESE,115,6.0,10.0,95,0.00,,,0.01,Wunderground v.1.15,2015-02-01 12:19:00,
2015-02-01 06:25:00,33.4,32.1,29.82,SE,129,5.0,6.0,95,0.00,,,0.01,Wunderground v.1.15,2015-02-01 12:25:00,
2015-02-01 06:31:00,33.4,32.1,29.82,SE,131,5.0,10.0,95,0.00,,,0.01,Wunderground v.1.15,2015-02-01 12:31:00,
2015-02-01 06:36:00,33.4,32.1,29.82,ESE,106,6.0,10.0,95,0.00,,,0.01,Wunderground v.1.15,2015-02-01 12:36:00,
2015-02-01 06:42:00,33.4,32.1,29.81,East,94,6.0,6.0,95,0.00,,,0.01,Wunderground v.1.15,2015-02-01 12:42:00,
2015-02-01 06:48:00,33.4,32.1,29.81,ESE,119,6.0,10.0,95,0.00,,,0.01,Wunderground v.1.15,2015-02-01 12:48:00,
2015-02-01 06:53:00,33.4,32.1,29.81,SE,131,6.0,7.0,95,0.00,,,0.01,Wunderground v.1.15,2015-02-01 12:53:00,
2015-02-01 06:59:00,33.4,32.1,29.81,SE,125,6.0,9.0,95,0.00,,,0.01,Wunderground v.1.15,2015-02-01 12:59:00,
2015-02-01 07:04:00,33.4,32.1,29.80,ESE,112,6.0,11.0,95,0.00,,,0.01,Wunderground v.1.15,2015-02-01 13:04:00,
2015-02-01 07:10:00,33.4,32.1,29.80,SSE,150,6.0,11.0,95,0.00,,,0.01,Wunderground v.1.15,2015-02-01 13:10:00,
2015-02-01 07:15:00,33.5,32.2,29.80,ESE,118,5.0,8.0,95,0.00,,,0.01,Wunderground v.1.15,2015-02-01 13:15:00,
2015-02-01 07:21:00,33.5,32.2,29.80,ESE,117,6.0,6.0,95,0.00,,,0.01,Wunderground v.1.15,2015-02-01 13:21:00,
2015-02-01 07:27:00,33.6,32.3,29.80,ESE,110,6.0,9.0,95,0.00,,,0.01,Wunderground v.1.15,2015-02-01 13:27:00,
2015-02-01 07:32:00,33.6,32.3,29.80,ESE,108,5.0,8.0,95,0.00,,,0.01,Wunderground v.1.15,2015-02-01 13:32:00,
2015-02-01 07:38:00,33.9,32.6,29.79,SE,146,6.0,11.0,95,0.00,,,0.01,Wunderground v.1.15,2015-02-01 13:38:00,
2015-02-01 07:43:00,34.0,32.7,29.79,SE,146,6.0,7.0,95,0.00,,,0.01,Wunderground v.1.15,2015-02-01 13:43:00,
2015-02-01 07:49:00,34.0,32.7,29.79,SSE,152,6.0,8.0,95,0.00,,,0.01,Wunderground v.1.15,2015-02-01 13:49:00,
2015-02-01 07:54:00,34.0,32.7,29.79,SE,146,5.0,8.0,95,0.00,,,0.01,Wunderground v.1.15,2015-02-01 13:54:00,
2015-02-01 08:00:00,33.9,32.6,29.78,ESE,106,5.0,8.0,95,0.00,,,0.01,Wunderground v.1.15,2015-02-01 14:00:00,